Tracking 29528 objects as of 12-Sep-2024
HD Live streaming from Space Station
objects crossing your sky now

FENGYUN 1C DEB

Track FENGYUN 1C DEB now!
10-day predictions


NORAD ID: 31989
Int'l Code: 1999-025CPS
Perigee: 840.6 km
Apogee: 1,013.8 km
Inclination: 99.3 °
Period: 103.4 minutes
Semi major axis: 7298 km
RCS: 0.0027 m2 (small)
Launch date: May 10, 1999
Source: People's Republic of China (PRC)
Launch site: Taiyaun Space Center, China (TSC)

Note: This is SATELLITE DEBRIS
Your satellite tracking list
Your tracking list is empty




NASA's NSSDC Master Catalog

Two Line Element Set (TLE):
1 31989U 99025CPS 24256.43078160  .00002615  00000-0  19502-2 0  9996
2 31989  99.2740 312.2043 0118687  96.3585 278.2094 13.92443867873642
Source of the keplerian elements: AFSPC